This is the latest recevied weather packets stored in our database for station/object KR4ELZ. If no packets are shown the sender has not sent any weather packets the latest 10 day(s).
| Time | Temp. | Humidity | Pressure | Rain* | Wind** | Luminosity | Snow |
|---|---|---|---|---|---|---|---|
| 1777055186 | 22.78° C | 73% | 1010.4 hPa | 0 mm | - | 51 W/m² | - |
| 1777054881 | 23.33° C | 73% | 1010.4 hPa | 0 mm | - | 68 W/m² | - |
| 1777054578 | 23.33° C | 73% | 1010.3 hPa | 0 mm | - | 70 W/m² | - |
| 1777054275 | 23.33° C | 72% | 1010.4 hPa | 0 mm | - | 76 W/m² | - |
| 1777053974 | 23.33° C | 72% | 1010.2 hPa | 0 mm | - | 127 W/m² | - |
| 1777053669 | 23.33° C | 73% | 1010.6 hPa | 0 mm | - | 100 W/m² | - |
| 1777053368 | 23.33° C | 74% | 1010.6 hPa | 0 mm | - | 78 W/m² | - |
| 1777053064 | 22.78° C | 73% | 1010.5 hPa | 0 mm | - | 56 W/m² | - |
| 1777052760 | 23.33° C | 72% | 1010.5 hPa | 0 mm | - | 52 W/m² | - |
| 1777052460 | 23.33° C | 71% | 1010.6 hPa | 0 mm | - | 87 W/m² | - |
| 1777052157 | 23.89° C | 71% | 1010.8 hPa | 0 mm | - | 115 W/m² | - |
| 1777051856 | 23.33° C | 70% | 1010.6 hPa | 0 mm | - | 146 W/m² | - |
| 1777051555 | 22.78° C | 71% | 1010.8 hPa | 0 mm | - | 117 W/m² | - |
| 1777051252 | 23.33° C | 71% | 1010.7 hPa | 0 mm | - | 88 W/m² | - |
| 1777050947 | 23.33° C | 70% | 1010.8 hPa | 0 mm | - | 64 W/m² | - |
| 1777050644 | 23.89° C | 68% | 1010.7 hPa | 0 mm | - | 91 W/m² | - |
| 1777050344 | 23.89° C | 69% | 1010.7 hPa | 0 mm | - | 138 W/m² | - |
| 1777050038 | 24.44° C | 69% | 1010.9 hPa | 0 mm | - | 111 W/m² | - |
| 1777049738 | 23.89° C | 70% | 1010.8 hPa | 0 mm | - | 150 W/m² | - |
| 1777049435 | 23.89° C | 70% | 1010.8 hPa | 0 mm | - | 161 W/m² | - |
| 1777049132 | 24.44° C | 69% | 1010.8 hPa | 0 mm | - | 138 W/m² | - |
| 1777048828 | 25° C | 69% | 1011 hPa | 0 mm | - | 217 W/m² | - |
* Rain latest hour (hover to see other rain measurements)
** Current wind speed in m/s (hover to see current wind gust speed)